,

(GMT )
P11-b Sea

Weather History for EHPG - December, 2013

Change the Weather History Date:

Monday, December 2, 2013

  Actual Average Record
Temperature  
Mean Temperature 46 °F -  
Max Temperature 49 °F - - ()
Min Temperature 44 °F - - ()
Degree Days  
Heating Degree Days 18    
Moisture  
Dew Point 37 °F    
Average Humidity 65    
Maximum Humidity 76    
Minimum Humidity 50    
Precipitation  
Precipitation 0.00 in - - ()
Sea Level Pressure  
Sea Level Pressure 30.52 in    
Wind  
Wind Speed 11 mph ()    
Max Wind Speed 16 mph    
Max Gust Speed 20 mph    
Visibility 6.7 miles    
Events      
T = Trace of Precipitation, MM = Missing Value Source: Averaged Metar Reports

Daily Weather History Graph

Daily Weather History Graph

Search for Another Location

Airport or City:

Trip Planner

Search our weather history database for the weather conditions in past years. The results will help you decide how hot, cold, wet, or windy it might be!

Date:

Astronomy

Dec. 02, 2013 Rise Set
Actual Time 8:35 AM CET 4:36 PM CET
Civil Twilight 7:55 AM CET 5:16 PM CET
Nautical Twilight 7:11 AM CET 5:59 PM CET
Astronomical Twilight 6:30 AM CET 6:40 PM CET
Moon 7:37 AM CET (12/2) 4:30 PM CET (12/2)
Length of Visible Light 9h 21m
Length of Day
8h 00m
Waning Crescent, 0% of the Moon is Illuminated
Dec 2
Waning Crescent
Dec 3
New
Dec 9
First Quarter
Dec 17
Full
Dec 25
Last Quarter

Hourly Weather History & Observations

Time (CET) Temp. Windchill Dew Point Humidity Pressure Visibility Wind Dir Wind Speed Gust Speed Precip Events Conditions
12:25 AM 50.0 °F - 41.0 °F 71% 30.51 in 6.2 mi NNE 13.8 mph - N/A   Scattered Clouds
12:55 AM 50.0 °F - 39.2 °F 66% 30.54 in 6.2 mi NE 12.7 mph - N/A   Scattered Clouds
1:00 AM 50 °F - 41 °F 62% 30.55 in 9 mi NNE 11.2 mph - -   Partly Cloudy
1:25 AM 50.0 °F - 41.0 °F 71% 30.54 in 6.2 mi NNE 15.0 mph - N/A   Mostly Cloudy
1:55 AM 50.0 °F - 39.2 °F 66% 30.54 in 6.2 mi NNE 12.7 mph - N/A   Mostly Cloudy
2:25 AM 50.0 °F - 41.0 °F 71% 30.54 in 6.2 mi NNE 15.0 mph - N/A   Scattered Clouds
2:55 AM 50.0 °F - 39.2 °F 66% 30.54 in 6.2 mi NE 16.1 mph - N/A   Partly Cloudy
3:25 AM 50.0 °F - 39.2 °F 66% 30.54 in 6.2 mi NE 15.0 mph - N/A   Partly Cloudy
3:55 AM 50.0 °F - 37.4 °F 62% 30.54 in 6.2 mi NE 15.0 mph - N/A   Scattered Clouds
4:00 AM 50 °F - 39 °F 56% 30.56 in 11 mi NE 11.2 mph - -   Scattered Clouds
4:25 AM 50.0 °F - 37.4 °F 62% 30.54 in 6.2 mi NE 13.8 mph - N/A   Mostly Cloudy
4:55 AM 50.0 °F - 37.4 °F 62% 30.54 in 6.2 mi NE 16.1 mph - N/A   Overcast
5:25 AM 50.0 °F - 39.2 °F 66% 30.54 in 6.2 mi NNE 11.5 mph - N/A   Overcast
5:55 AM 50.0 °F - 39.2 °F 66% 30.54 in 6.2 mi ENE 15.0 mph - N/A   Overcast
6:25 AM 50.0 °F - 35.6 °F 58% 30.54 in 6.2 mi NE 11.5 mph - N/A   Overcast
6:55 AM 50.0 °F - 37.4 °F 62% 30.54 in 6.2 mi ENE 15.0 mph - N/A   Overcast
7:00 AM 49 °F - 36 °F 50% 30.56 in 11 mi NE 13.4 mph - -   Partly Cloudy
7:25 AM 48.2 °F - 35.6 °F 62% 30.54 in 6.2 mi ENE 15.0 mph - N/A   Overcast
7:55 AM 48.2 °F - 37.4 °F 66% 30.54 in 6.2 mi ENE 12.7 mph - N/A   Overcast
8:25 AM 48.2 °F - 37.4 °F 66% 30.54 in 6.2 mi ENE 13.8 mph - N/A   Overcast
8:55 AM 48.2 °F - 35.6 °F 62% 30.57 in 6.2 mi East 10.4 mph - N/A   Overcast
9:25 AM 48.2 °F - 35.6 °F 62% 30.57 in 6.2 mi East 10.4 mph - N/A   Overcast
9:55 AM 48.2 °F - 35.6 °F 62% 30.57 in 6.2 mi East 11.5 mph - N/A   Overcast
10:00 AM 48 °F - 36 °F 52% 30.58 in 10 mi East 11.2 mph - -   Overcast
10:25 AM 48.2 °F - 35.6 °F 62% 30.57 in 6.2 mi East 10.4 mph - N/A   Overcast
10:55 AM 48.2 °F - 35.6 °F 62% 30.57 in 6.2 mi ENE 10.4 mph - N/A   Overcast
11:25 AM 48.2 °F - 35.6 °F 62% 30.57 in 6.2 mi East 12.7 mph - N/A   Overcast
11:55 AM 48.2 °F - 35.6 °F 62% 30.54 in 6.2 mi East 8.1 mph - N/A   Mostly Cloudy
12:25 PM 48.2 °F - 35.6 °F 62% 30.54 in 6.2 mi East 11.5 mph - N/A   Mostly Cloudy
12:55 PM 48.2 °F - 35.6 °F 62% 30.54 in 6.2 mi East 8.1 mph - N/A   Scattered Clouds
1:00 PM 47 °F - 35 °F 53% 30.56 in 9 mi ESE 6.7 mph - -   Partly Cloudy
1:25 PM 48.2 °F - 35.6 °F 62% 30.54 in 6.2 mi East 8.1 mph - N/A   Mostly Cloudy
1:55 PM 48.2 °F - 35.6 °F 62% 30.54 in 6.2 mi East 8.1 mph - N/A   Scattered Clouds
2:25 PM 48.2 °F - 35.6 °F 62% 30.51 in 6.2 mi ENE 6.9 mph - N/A   Partly Cloudy
2:55 PM 48.2 °F - 35.6 °F 62% 30.51 in 6.2 mi ENE 8.1 mph 19.6 mph N/A   Partly Cloudy
3:25 PM 48.2 °F - 35.6 °F 62% 30.51 in 6.2 mi ENE 8.1 mph - N/A   Unknown
3:55 PM 48.2 °F - 37.4 °F 66% 30.51 in 6.2 mi ENE 9.2 mph - N/A   Partly Cloudy
4:00 PM 47 °F - 37 °F 59% 30.52 in 9 mi ENE 8.9 mph - -   Partly Cloudy
4:25 PM 48.2 °F - 37.4 °F 66% 30.51 in 6.2 mi ENE 10.4 mph - N/A   Partly Cloudy
4:55 PM 48.2 °F - 37.4 °F 66% 30.51 in 6.2 mi ENE 10.4 mph - N/A   Partly Cloudy
5:25 PM 48.2 °F - 37.4 °F 66% 30.48 in 6.2 mi ENE 11.5 mph - N/A   Mostly Cloudy
5:55 PM 48.2 °F - 37.4 °F 66% 30.48 in 6.2 mi ENE 12.7 mph - N/A   Mostly Cloudy
6:25 PM 48.2 °F - 37.4 °F 66% 30.51 in 6.2 mi ENE 11.5 mph - N/A   Mostly Cloudy
6:55 PM 48.2 °F - 37.4 °F 66% 30.51 in 6.2 mi ENE 11.5 mph - N/A   Mostly Cloudy
7:00 PM 47 °F - 37 °F 60% 30.51 in 8 mi ENE 8.9 mph - -   Partly Cloudy
7:25 PM 46.4 °F 41.1 °F 37.4 °F 71% 30.48 in 6.2 mi ENE 11.5 mph - N/A   Mostly Cloudy
7:55 PM 46.4 °F 41.1 °F 37.4 °F 71% 30.48 in 6.2 mi East 11.5 mph - N/A   Mostly Cloudy
8:25 PM 46.4 °F 41.1 °F 37.4 °F 71% 30.48 in 6.2 mi East 11.5 mph - N/A   Mostly Cloudy
8:55 PM 46.4 °F 40.7 °F 37.4 °F 71% 30.48 in 6.2 mi East 12.7 mph - N/A   Scattered Clouds
9:25 PM 46.4 °F 41.1 °F 37.4 °F 71% 30.48 in 6.2 mi East 11.5 mph - N/A   Partly Cloudy
9:55 PM 46.4 °F 41.1 °F 37.4 °F 71% 30.45 in 6.2 mi East 11.5 mph - N/A   Partly Cloudy
10:00 PM 46 °F - 38 °F 63% 30.48 in 8 mi ESE 8.9 mph - -   Scattered Clouds
10:25 PM 46.4 °F 41.5 °F 37.4 °F 71% 30.45 in 6.2 mi ESE 10.4 mph - N/A   Partly Cloudy
10:55 PM 44.6 °F 39.2 °F 37.4 °F 76% 30.45 in 6.2 mi SE 10.4 mph - N/A   Partly Cloudy
11:25 PM 46.4 °F 41.9 °F 37.4 °F 71% 30.45 in 6.2 mi Variable 9.2 mph - N/A   Scattered Clouds
11:55 PM 44.6 °F 40.2 °F 37.4 °F 76% 30.45 in 6.2 mi Variable 8.1 mph - N/A   Scattered Clouds